DEKKL ENZV-ENHD

Flight info

Callsign DEKKL
Flight time 0h 18m
Altitude
Route TUNGENES BOKN VEST
Aircraft DA40

Departure

Time 2026-05-03 20:36
Airport Stavanger Airport, Sola (ENZV)

Arrival

Time 2026-05-03 20:54
Airport Haugesund Airport, Karmøy (ENHD)
Time Latitude Longitude Altitude Speed Heading
2026-05-03 20:30 58.88580 5.62860 18 ft 5 kts 136°
2026-05-03 20:30 58.88542 5.62915 18 ft 5 kts 142°
2026-05-03 20:31 58.88516 5.62960 18 ft 5 kts 133°
2026-05-03 20:31 58.88482 5.63026 19 ft 12 kts 135°
2026-05-03 20:31 58.88429 5.63123 20 ft 7 kts 139°
2026-05-03 20:31 58.88371 5.63221 22 ft 13 kts 154°
2026-05-03 20:32 58.88280 5.63275 23 ft 14 kts 166°
2026-05-03 20:32 58.88180 5.63299 24 ft 16 kts 189°
2026-05-03 20:32 58.88092 5.63216 21 ft 13 kts 218°
2026-05-03 20:32 58.88035 5.63112 21 ft 9 kts 209°
2026-05-03 20:33 58.87979 5.63154 22 ft 10 kts 129°
2026-05-03 20:33 58.87957 5.63258 22 ft 6 kts 104°
2026-05-03 20:33 58.87930 5.63338 25 ft 9 kts 161°
2026-05-03 20:33 58.87863 5.63304 25 ft 10 kts 204°
2026-05-03 20:34 58.87786 5.63293 25 ft 12 kts 171°
2026-05-03 20:34 58.87729 5.63457 26 ft 18 kts 105°
2026-05-03 20:34 58.87695 5.63679 27 ft 13 kts 107°
2026-05-03 20:34 58.87715 5.63776 27 ft 7 kts
2026-05-03 20:35 58.87770 5.63773 27 ft 20 kts 355°
2026-05-03 20:35 58.88053 5.63762 27 ft 61 kts 358°
2026-05-03 20:35 58.88526 5.63818 225 ft 71 kts 356°
2026-05-03 20:35 58.89001 5.63881 561 ft 62 kts 353°
2026-05-03 20:36 58.89346 5.63439 740 ft 79 kts 299°
2026-05-03 20:36 58.89532 5.62317 836 ft 91 kts 297°
2026-05-03 20:36 58.89719 5.61115 1002 ft 99 kts 295°
2026-05-03 20:36 58.89902 5.59771 1028 ft 109 kts 294°
2026-05-03 20:37 58.90198 5.58411 1053 ft 111 kts 310°
2026-05-03 20:37 58.90734 5.57375 1131 ft 106 kts 330°
2026-05-03 20:37 58.91370 5.56564 1046 ft 116 kts 329°
2026-05-03 20:37 58.92068 5.55730 1039 ft 119 kts 330°
2026-05-03 20:38 58.92781 5.54946 1082 ft 117 kts 333°
2026-05-03 20:38 58.93514 5.54219 1068 ft 120 kts 333°
2026-05-03 20:38 58.94250 5.53419 1038 ft 122 kts 333°
2026-05-03 20:38 58.94943 5.52492 1047 ft 122 kts 326°
2026-05-03 20:39 58.95630 5.51556 1008 ft 123 kts 330°
2026-05-03 20:39 58.96366 5.50724 986 ft 122 kts 332°
2026-05-03 20:39 58.97114 5.49929 962 ft 123 kts 333°
2026-05-03 20:39 58.97869 5.49171 962 ft 122 kts 335°
2026-05-03 20:40 58.98626 5.48441 970 ft 122 kts 335°
2026-05-03 20:40 58.99387 5.47729 986 ft 121 kts 336°
2026-05-03 20:40 59.00149 5.47002 973 ft 123 kts 334°
2026-05-03 20:40 59.00912 5.46224 916 ft 125 kts 333°
2026-05-03 20:41 59.01666 5.45458 953 ft 120 kts 332°
2026-05-03 20:41 59.02380 5.44654 996 ft 117 kts 328°
2026-05-03 20:41 59.03053 5.43780 1040 ft 116 kts 327°
2026-05-03 20:41 59.03723 5.42870 1028 ft 119 kts 326°
2026-05-03 20:42 59.04389 5.41929 1070 ft 117 kts 324°
2026-05-03 20:42 59.05038 5.40934 1051 ft 120 kts 322°
2026-05-03 20:42 59.05704 5.40001 1119 ft 116 kts 328°
2026-05-03 20:42 59.06312 5.39036 1253 ft 111 kts 316°
2026-05-03 20:43 59.06807 5.37916 1383 ft 108 kts 314°
2026-05-03 20:43 59.07329 5.36856 1470 ft 109 kts 318°
2026-05-03 20:43 59.07854 5.35813 1553 ft 110 kts 317°
2026-05-03 20:43 59.08372 5.34659 1553 ft 116 kts 314°
2026-05-03 20:44 59.08897 5.33427 1546 ft 120 kts 314°
2026-05-03 20:44 59.09426 5.32125 1497 ft 124 kts 313°
2026-05-03 20:44 59.09977 5.30822 1460 ft 125 kts 315°
2026-05-03 20:44 59.10560 5.29567 1448 ft 124 kts 317°
2026-05-03 20:45 59.11155 5.28348 1442 ft 124 kts 318°
2026-05-03 20:45 59.11755 5.27157 1467 ft 122 kts 318°
2026-05-03 20:45 59.12354 5.25981 1465 ft 122 kts 319°
2026-05-03 20:45 59.12964 5.24826 1451 ft 123 kts 319°
2026-05-03 20:46 59.13578 5.23648 1447 ft 124 kts 318°
2026-05-03 20:46 59.14178 5.22449 1442 ft 124 kts 318°
2026-05-03 20:46 59.14784 5.21272 1444 ft 123 kts 319°
2026-05-03 20:46 59.15416 5.20152 1455 ft 123 kts 324°
2026-05-03 20:47 59.16113 5.19197 1445 ft 123 kts 330°
2026-05-03 20:47 59.16854 5.18397 1431 ft 121 kts 336°
2026-05-03 20:47 59.17627 5.17785 1425 ft 119 kts 341°
2026-05-03 20:47 59.18422 5.17332 1436 ft 119 kts 346°
2026-05-03 20:48 59.19235 5.17077 1450 ft 119 kts 354°
2026-05-03 20:48 59.20063 5.16995 1448 ft 119 kts 359°
2026-05-03 20:48 59.20893 5.17000 1454 ft 120 kts 359°
2026-05-03 20:48 59.21733 5.17047 1470 ft 121 kts 359°
2026-05-03 20:49 59.22575 5.17100 1496 ft 120 kts
2026-05-03 20:49 59.23417 5.17063 1471 ft 122 kts 352°
2026-05-03 20:49 59.24245 5.16946 1506 ft 120 kts 360°
2026-05-03 20:49 59.25073 5.17097 1537 ft 120 kts
2026-05-03 20:50 59.25905 5.17354 1538 ft 122 kts
2026-05-03 20:50 59.26735 5.17713 1548 ft 123 kts 12°
2026-05-03 20:50 59.27561 5.18197 1522 ft 125 kts 14°
2026-05-03 20:50 59.28384 5.18712 1512 ft 124 kts 13°
2026-05-03 20:51 59.29200 5.19318 1438 ft 129 kts 28°
2026-05-03 20:51 59.29847 5.20616 1279 ft 137 kts 50°
2026-05-03 20:51 59.30332 5.22188 1132 ft 124 kts 58°
2026-05-03 20:51 59.30725 5.23485 971 ft 98 kts 47°
2026-05-03 20:52 59.31109 5.24548 859 ft 97 kts 45°
2026-05-03 20:52 59.31566 5.25422 857 ft 85 kts 14°
2026-05-03 20:52 59.32135 5.25317 579 ft 83 kts 334°
2026-05-03 20:52 59.32546 5.24762 471 ft 68 kts 318°
2026-05-03 20:53 59.32874 5.24100 390 ft 68 kts 321°
2026-05-03 20:53 59.33216 5.23438 289 ft 71 kts 320°
2026-05-03 20:53 59.33564 5.22747 198 ft 71 kts 315°
2026-05-03 20:53 59.33910 5.22060 97 ft 71 kts 316°
2026-05-03 20:54 59.34181 5.21531 83 ft 40 kts 315°
2026-05-03 20:54 59.34353 5.21316 81 ft 8 kts 44°
2026-05-03 20:54 59.34386 5.21382 82 ft 6 kts 48°
2026-05-03 20:55 59.34413 5.21427 81 ft 5 kts 26°
2026-05-03 20:55 59.34445 5.21415 81 ft 5 kts 323°
2026-05-03 20:55 59.34478 5.21406 81 ft 5 kts 17°
2026-05-03 20:55 59.34515 5.21424 82 ft 4 kts 12°
2026-05-03 20:56 59.34519 5.21425 82 ft 0 kts 11°